TimeEDT,TemperatureF,Dew PointF,Humidity,Sea Level PressureIn,VisibilityMPH,Wind Direction,Wind SpeedMPH,Gust SpeedMPH,PrecipitationIn,Events,Conditions,WindDirDegrees,DateUTC
12:15 AM,48.2,48.2,100,30.17,10.0,Calm,Calm,-,N/A,,Clear,0,2012-09-24 04:15:00
12:35 AM,46.4,46.4,100,30.17,4.0,Calm,Calm,-,N/A,,Clear,0,2012-09-24 04:35:00
12:55 AM,46.4,46.4,100,30.17,10.0,Calm,Calm,-,N/A,,Clear,0,2012-09-24 04:55:00
1:15 AM,48.2,48.2,100,30.18,10.0,Calm,Calm,-,N/A,,Clear,0,2012-09-24 05:15:00
1:35 AM,50.0,50.0,100,30.18,10.0,Calm,Calm,-,N/A,,Clear,0,2012-09-24 05:35:00
1:55 AM,46.4,46.4,100,30.18,10.0,Calm,Calm,-,N/A,,Clear,0,2012-09-24 05:55:00
2:15 AM,46.4,46.4,100,30.19,10.0,Calm,Calm,-,N/A,,Clear,0,2012-09-24 06:15:00
2:35 AM,46.4,46.4,100,30.19,10.0,Calm,Calm,-,N/A,,Scattered Clouds,0,2012-09-24 06:35:00
2:55 AM,46.4,46.4,100,30.19,10.0,Calm,Calm,-,N/A,,Overcast,0,2012-09-24 06:55:00
3:15 AM,46.4,46.4,100,30.19,10.0,Calm,Calm,-,N/A,,Overcast,0,2012-09-24 07:15:00
3:35 AM,48.2,48.2,100,30.19,10.0,Calm,Calm,-,N/A,,Overcast,0,2012-09-24 07:35:00
3:55 AM,48.2,48.2,100,30.19,10.0,Calm,Calm,-,N/A,,Mostly Cloudy,0,2012-09-24 07:55:00
4:15 AM,48.2,46.4,93,30.19,10.0,Calm,Calm,-,N/A,,Scattered Clouds,0,2012-09-24 08:15:00
4:35 AM,46.4,46.4,100,30.19,10.0,Calm,Calm,-,N/A,,Scattered Clouds,0,2012-09-24 08:35:00
4:55 AM,46.4,46.4,100,30.20,10.0,Calm,Calm,-,N/A,,Clear,0,2012-09-24 08:55:00
5:15 AM,44.6,44.6,100,30.20,10.0,Calm,Calm,-,N/A,,Clear,0,2012-09-24 09:15:00
5:35 AM,44.6,44.6,100,30.21,10.0,Calm,Calm,-,N/A,,Clear,0,2012-09-24 09:35:00
5:55 AM,44.6,44.6,100,30.21,10.0,Calm,Calm,-,N/A,,Clear,0,2012-09-24 09:55:00
6:15 AM,44.6,44.6,100,30.22,10.0,Calm,Calm,-,N/A,,Clear,0,2012-09-24 10:15:00
6:35 AM,44.6,44.6,100,30.22,10.0,Calm,Calm,-,N/A,,Clear,0,2012-09-24 10:35:00
6:55 AM,42.8,42.8,100,30.23,10.0,Calm,Calm,-,N/A,,Clear,0,2012-09-24 10:55:00
7:15 AM,42.8,42.8,100,30.24,10.0,Calm,Calm,-,N/A,,Clear,0,2012-09-24 11:15:00
7:35 AM,42.8,42.8,100,30.24,10.0,Calm,Calm,-,N/A,,Clear,0,2012-09-24 11:35:00
7:55 AM,44.6,44.6,100,30.25,10.0,Calm,Calm,-,N/A,,Clear,0,2012-09-24 11:55:00
8:15 AM,48.2,48.2,100,30.25,10.0,Calm,Calm,-,N/A,,Clear,0,2012-09-24 12:15:00
8:35 AM,51.8,46.4,82,30.26,10.0,Calm,Calm,-,N/A,,Clear,0,2012-09-24 12:35:00
8:55 AM,53.6,46.4,77,30.26,10.0,NNE,5.8,-,N/A,,Clear,20,2012-09-24 12:55:00
9:15 AM,55.4,44.6,67,30.26,10.0,North,5.8,-,N/A,,Clear,10,2012-09-24 13:15:00
9:35 AM,57.2,46.4,67,30.27,10.0,North,5.8,-,N/A,,Clear,10,2012-09-24 13:35:00
9:55 AM,59.0,44.6,59,30.27,10.0,North,3.5,-,N/A,,Clear,10,2012-09-24 13:55:00
10:15 AM,60.8,46.4,59,30.27,10.0,North,4.6,-,N/A,,Clear,10,2012-09-24 14:15:00
10:35 AM,60.8,42.8,52,30.27,10.0,NNE,8.1,-,N/A,,Clear,20,2012-09-24 14:35:00
10:55 AM,62.6,44.6,52,30.27,10.0,NNE,6.9,-,N/A,,Clear,20,2012-09-24 14:55:00
11:15 AM,62.6,42.8,48,30.27,10.0,NE,6.9,-,N/A,,Clear,40,2012-09-24 15:15:00
11:35 AM,64.4,44.6,49,30.26,10.0,North,5.8,-,N/A,,Clear,360,2012-09-24 15:35:00
11:55 AM,64.4,42.8,45,30.26,10.0,NNE,8.1,-,N/A,,Clear,20,2012-09-24 15:55:00
12:15 PM,64.4,41.0,42,30.25,10.0,NNE,4.6,-,N/A,,Clear,30,2012-09-24 16:15:00
12:35 PM,64.4,42.8,45,30.25,10.0,NE,4.6,-,N/A,,Clear,40,2012-09-24 16:35:00
12:55 PM,64.4,42.8,45,30.25,10.0,NNE,3.5,-,N/A,,Clear,20,2012-09-24 16:55:00
1:15 PM,64.4,42.8,45,30.24,10.0,North,5.8,-,N/A,,Clear,10,2012-09-24 17:15:00
1:35 PM,64.4,41.0,42,30.24,10.0,Calm,Calm,-,N/A,,Clear,0,2012-09-24 17:35:00
1:55 PM,66.2,41.0,40,30.23,10.0,Calm,Calm,-,N/A,,Clear,0,2012-09-24 17:55:00
2:15 PM,68.0,42.8,40,30.22,10.0,East,3.5,-,N/A,,Clear,90,2012-09-24 18:15:00
2:35 PM,68.0,41.0,37,30.22,10.0,SSE,3.5,-,N/A,,Clear,160,2012-09-24 18:35:00
2:55 PM,68.0,41.0,37,30.21,10.0,Calm,Calm,-,N/A,,Clear,0,2012-09-24 18:55:00
3:15 PM,68.0,42.8,40,30.21,10.0,Calm,Calm,-,N/A,,Clear,0,2012-09-24 19:15:00
3:35 PM,68.0,42.8,40,30.20,10.0,Calm,Calm,-,N/A,,Clear,0,2012-09-24 19:35:00
3:55 PM,68.0,42.8,40,30.20,10.0,East,3.5,-,N/A,,Clear,90,2012-09-24 19:55:00
4:15 PM,68.0,41.0,37,30.19,10.0,South,3.5,-,N/A,,Clear,170,2012-09-24 20:15:00
4:35 PM,68.0,42.8,40,30.19,10.0,Calm,Calm,-,N/A,,Clear,0,2012-09-24 20:35:00
4:55 PM,68.0,41.0,37,30.19,10.0,Calm,Calm,-,N/A,,Clear,0,2012-09-24 20:55:00
5:15 PM,68.0,41.0,37,30.19,10.0,Calm,Calm,-,N/A,,Clear,0,2012-09-24 21:15:00
5:35 PM,68.0,41.0,37,30.19,10.0,Calm,Calm,-,N/A,,Clear,0,2012-09-24 21:35:00
5:55 PM,68.0,41.0,37,30.19,10.0,Calm,Calm,-,N/A,,Clear,0,2012-09-24 21:55:00
6:15 PM,66.2,44.6,46,30.20,10.0,Calm,Calm,-,N/A,,Clear,0,2012-09-24 22:15:00
6:35 PM,64.4,46.4,52,30.19,10.0,Calm,Calm,-,N/A,,Clear,0,2012-09-24 22:35:00
6:55 PM,59.0,51.8,77,30.20,10.0,Calm,Calm,-,N/A,,Clear,0,2012-09-24 22:55:00
7:15 PM,55.4,51.8,88,30.20,10.0,Calm,Calm,-,N/A,,Clear,0,2012-09-24 23:15:00
7:35 PM,55.4,51.8,88,30.20,10.0,Calm,Calm,-,N/A,,Clear,0,2012-09-24 23:35:00
7:55 PM,53.6,51.8,94,30.20,10.0,Calm,Calm,-,N/A,,Clear,0,2012-09-24 23:55:00
8:15 PM,53.6,51.8,94,30.20,10.0,Calm,Calm,-,N/A,,Clear,0,2012-09-25 00:15:00
8:55 PM,50.0,50.0,100,30.21,10.0,Calm,Calm,-,N/A,,Clear,0,2012-09-25 00:55:00
9:15 PM,51.8,51.8,100,30.22,10.0,Calm,Calm,-,N/A,,Clear,0,2012-09-25 01:15:00
9:35 PM,50.0,50.0,100,30.22,10.0,Calm,Calm,-,N/A,,Clear,0,2012-09-25 01:35:00
9:55 PM,50.0,50.0,100,30.22,10.0,Calm,Calm,-,N/A,,Clear,0,2012-09-25 01:55:00
10:15 PM,50.0,50.0,100,30.22,10.0,Calm,Calm,-,N/A,,Clear,0,2012-09-25 02:15:00
10:35 PM,46.4,46.4,100,30.22,7.0,Calm,Calm,-,N/A,,Clear,0,2012-09-25 02:35:00
10:55 PM,46.4,46.4,100,30.22,7.0,Calm,Calm,-,N/A,,Clear,0,2012-09-25 02:55:00
11:15 PM,46.4,46.4,100,30.22,4.0,Calm,Calm,-,N/A,,Clear,0,2012-09-25 03:15:00
11:35 PM,46.4,46.4,100,30.22,2.5,Calm,Calm,-,N/A,,Clear,0,2012-09-25 03:35:00
11:55 PM,46.4,46.4,100,30.22,5.0,Calm,Calm,-,N/A,,Clear,0,2012-09-25 03:55:00